Regional Weather Roundup
Issued by NWS

Home | Current Version | Previous Version | Graphics & Text | Print | Product List | Glossary On
Versions: 1 2 3 4 5 6 7 8 9 10 11 12 13 14 15 16 17 18 19 20 21 22 23 24 25 26 27 28 29 30 31 32 33 34 35 36 37 38 39 40 41 42 43 44 45 46 47 48 49 50
000
ASUS43 KBIS 182120
RWRND

NORTH DAKOTA REGIONAL WEATHER ROUNDUP
NATIONAL WEATHER SERVICE BISMARCK ND
300 PM CST THU DEC 18 2014

NOTE: "FAIR" INDICATES FEW OR NO CLOUDS BELOW 12,000 FEET WITH NO
SIGNIFICANT WEATHER AND/OR OBSTRUCTIONS TO VISIBILITY.


NDZ001>003-009>011-017-182200-
NORTHWEST NORTH DAKOTA

CITY           SKY/WX    TMP DP  RH WIND       PRES   REMARKS
WILLISTON      CLOUDY    27  22  81 SW5       29.95F
MINOT          CLOUDY    22  17  81 SE6       30.00S HAZE    WCI  14
MINOT AFB      CLOUDY    21  21 100 S6        29.99F WCI  14
$$

NDZ018>021-031>035-040>046-182200-
SOUTHWEST NORTH DAKOTA

CITY           SKY/WX    TMP DP  RH WIND       PRES   REMARKS
BISMARCK       CLOUDY    25  21  85 S6        30.03F WCI  18
DICKINSON      CLOUDY    31  26  82 W5        29.92S
GARRISON         N/A     24  21  88 S8        29.98F WCI  15
HETTINGER ARPT CLOUDY    32  27  81 SW5       29.95F
$$

NDZ004>008-012>016-024-026-027-054-182200-
NORTHEAST NORTH DAKOTA

CITY           SKY/WX    TMP DP  RH WIND       PRES   REMARKS
GRAND FORKS    CLOUDY    18  13  80 S14       30.18F WCI   4
GRND FRKS AFB  CLOUDY    18  17  94 SE10      30.17F WCI   6
DEVILS LAKE    CLOUDY    19  10  68 S12       30.06S WCI   7
$$

NDZ022-023-025-028>030-036>039-047>053-182200-
SOUTHEAST NORTH DAKOTA

CITY           SKY/WX    TMP DP  RH WIND       PRES   REMARKS
FARGO          CLOUDY    20  14  77 S14       30.19F WCI   7
JAMESTOWN      CLOUDY    22  18  85 S12       30.08F WCI  10
$$




USA.gov is the U.S. government's official web portal to all federal, state and local government web resources and services.